Pontiac, IL

7:06 PM CDT on September 29, 2016 (GMT -0500)
Pontiac Municipal

Weather History for KPNT - March, 2013

Change the Weather History Date:

Saturday, March 2, 2013

  Actual Average Record
Temperature  
Mean Temperature 24 °F -  
Max Temperature 30 °F 46 °F 71 °F (1992)
Min Temperature 19 °F 26 °F -5 °F (1913)
Degree Days  
Heating Degree Days 40    
Moisture  
Dew Point 20 °F    
Average Humidity 76    
Maximum Humidity 86    
Minimum Humidity 64    
Precipitation  
Precipitation 0.00 in - - ()
Sea Level Pressure  
Sea Level Pressure 30.17 in    
Wind  
Wind Speed 12 mph (NNW)    
Max Wind Speed 16 mph    
Max Gust Speed 21 mph    
Visibility 10 miles    
Events Snow    
Averages and records for this station are not official NWS values.
T = Trace of Precipitation, MM = Missing Value Source: NWS Daily Summary

Daily Weather History Graph

Daily Weather History Graph

Search for Another Location

Airport or City:

Trip Planner

Search our weather history database for the weather conditions in past years. The results will help you decide how hot, cold, wet, or windy it might be!

Date:

Astronomy

Mar. 02, 2013 Rise Set
Actual Time 6:26 AM CST 5:47 PM CST
Civil Twilight 5:59 AM CST 6:14 PM CST
Nautical Twilight 5:27 AM CST 6:46 PM CST
Astronomical Twilight 4:55 AM CST 7:18 PM CST
Moon 11:29 PM CST (3/2) 8:52 AM CST (3/2)
Length of Visible Light 12h 15m
Length of Day
11h 20m
Waning Gibbous, 74% of the Moon is Illuminated
Mar 2
Waning Gibbous
Mar 4
Last Quarter
Mar 11
New
Mar 19
First Quarter
Mar 27
Full

Hourly Weather History & Observations

Time (CST) Temp. Windchill Dew Point Humidity Pressure Visibility Wind Dir Wind Speed Gust Speed Precip Events Conditions
12:15 AM 26.6 °F 16.8 °F 21.2 °F 80% 30.17 in 10.0 mi North 10.4 mph 16.1 mph N/A   Overcast
12:35 AM 26.6 °F 15.7 °F 21.2 °F 80% 30.17 in 10.0 mi North 12.7 mph 17.3 mph N/A   Overcast
12:55 AM 26.6 °F 15.7 °F 21.2 °F 80% 30.17 in 10.0 mi North 12.7 mph 17.3 mph N/A   Overcast
1:15 AM 26.6 °F 15.7 °F 21.2 °F 80% 30.17 in 10.0 mi North 12.7 mph - N/A   Overcast
1:35 AM 26.6 °F 16.2 °F 21.2 °F 80% 30.17 in 10.0 mi North 11.5 mph - N/A   Overcast
1:55 AM 26.6 °F 15.7 °F 21.2 °F 80% 30.16 in 10.0 mi North 12.7 mph - N/A   Overcast
2:15 AM 26.6 °F 15.7 °F 21.2 °F 80% 30.16 in 10.0 mi North 12.7 mph - N/A   Overcast
2:35 AM 26.6 °F 15.7 °F 21.2 °F 80% 30.15 in 10.0 mi North 12.7 mph - N/A   Overcast
2:55 AM 26.6 °F 16.2 °F 21.2 °F 80% 30.15 in 10.0 mi North 11.5 mph - N/A   Overcast
3:15 AM 26.6 °F 15.2 °F 21.2 °F 80% 30.15 in 10.0 mi North 13.8 mph 19.6 mph N/A   Overcast
3:35 AM 26.6 °F 15.2 °F 21.2 °F 80% 30.15 in 10.0 mi NNW 13.8 mph - N/A   Overcast
3:55 AM 26.6 °F 16.2 °F 21.2 °F 80% 30.15 in 10.0 mi NNW 11.5 mph - N/A   Overcast
4:15 AM 26.6 °F 15.7 °F 21.2 °F 80% 30.15 in 10.0 mi NNW 12.7 mph - N/A   Overcast
4:35 AM 26.6 °F 16.2 °F 21.2 °F 80% 30.15 in 10.0 mi North 11.5 mph - N/A   Overcast
4:55 AM 26.6 °F 16.8 °F 21.2 °F 80% 30.15 in 10.0 mi NNW 10.4 mph - N/A   Overcast
5:15 AM 26.6 °F 16.8 °F 21.2 °F 80% 30.15 in 10.0 mi NNW 10.4 mph - N/A   Overcast
5:35 AM 26.6 °F 16.8 °F 21.2 °F 80% 30.15 in 10.0 mi NNW 10.4 mph - N/A   Overcast
5:55 AM 26.6 °F 15.7 °F 23.0 °F 86% 30.15 in 10.0 mi NNW 12.7 mph 16.1 mph N/A   Overcast
6:15 AM 26.6 °F 17.5 °F 21.2 °F 80% 30.16 in 10.0 mi NNW 9.2 mph - N/A   Overcast
6:35 AM 26.6 °F 16.8 °F 21.2 °F 80% 30.16 in 10.0 mi NNW 10.4 mph - N/A   Overcast
6:55 AM 26.6 °F 15.7 °F 21.2 °F 80% 30.17 in 10.0 mi NNW 12.7 mph - N/A   Overcast
7:15 AM 26.6 °F 15.2 °F 21.2 °F 80% 30.17 in 10.0 mi NNW 13.8 mph - N/A   Overcast
7:35 AM 26.6 °F 15.2 °F 21.2 °F 80% 30.18 in 10.0 mi NNW 13.8 mph - N/A   Overcast
7:55 AM 24.8 °F 14.0 °F 21.2 °F 86% 30.19 in 10.0 mi NNW 11.5 mph - N/A Snow Light Snow
8:15 AM 26.6 °F 15.7 °F 21.2 °F 80% 30.19 in 10.0 mi NNW 12.7 mph - N/A   Overcast
8:35 AM 26.6 °F 16.2 °F 21.2 °F 80% 30.19 in 10.0 mi NNW 11.5 mph - N/A   Overcast
8:55 AM 26.6 °F 15.7 °F 21.2 °F 80% 30.19 in 10.0 mi NNW 12.7 mph - N/A   Overcast
9:15 AM 26.6 °F 15.7 °F 21.2 °F 80% 30.19 in 10.0 mi NNW 12.7 mph - N/A   Overcast
9:35 AM 26.6 °F 16.2 °F 21.2 °F 80% 30.19 in 10.0 mi NNW 11.5 mph - N/A   Overcast
9:55 AM 26.6 °F 16.8 °F 21.2 °F 80% 30.19 in 10.0 mi NNW 10.4 mph - N/A   Overcast
10:15 AM 26.6 °F 16.8 °F 21.2 °F 80% 30.19 in 10.0 mi NNW 10.4 mph - N/A   Overcast
10:35 AM 28.4 °F 19.1 °F 21.2 °F 74% 30.20 in 10.0 mi NNW 10.4 mph - N/A   Overcast
10:55 AM 28.4 °F 18.5 °F 21.2 °F 74% 30.20 in 10.0 mi NNW 11.5 mph - N/A   Overcast
11:15 AM 28.4 °F 17.5 °F 21.2 °F 74% 30.20 in 10.0 mi NNW 13.8 mph - N/A   Overcast
11:35 AM 30.2 °F 19.3 °F 21.2 °F 69% 30.19 in 10.0 mi NNW 15.0 mph 18.4 mph N/A   Overcast
11:55 AM 30.2 °F 18.9 °F 21.2 °F 69% 30.18 in 10.0 mi NNW 16.1 mph - N/A   Mostly Cloudy
12:15 PM 30.2 °F 18.9 °F 21.2 °F 69% 30.17 in 10.0 mi NNW 16.1 mph - N/A   Scattered Clouds
12:35 PM 30.2 °F 19.3 °F 19.4 °F 64% 30.17 in 10.0 mi NNW 15.0 mph 20.7 mph N/A   Scattered Clouds
12:55 PM 30.2 °F 19.8 °F 19.4 °F 64% 30.17 in 10.0 mi NNW 13.8 mph 18.4 mph N/A   Scattered Clouds
1:15 PM 30.2 °F 19.8 °F 19.4 °F 64% 30.17 in 10.0 mi NNW 13.8 mph - N/A   Scattered Clouds
1:35 PM 30.2 °F 20.2 °F 19.4 °F 64% 30.17 in 10.0 mi NNW 12.7 mph - N/A   Scattered Clouds
1:55 PM 30.2 °F 19.8 °F 19.4 °F 64% 30.16 in 10.0 mi NW 13.8 mph 18.4 mph N/A   Scattered Clouds
2:15 PM 30.2 °F 19.8 °F 19.4 °F 64% 30.16 in 10.0 mi NNW 13.8 mph - N/A   Scattered Clouds
2:35 PM 30.2 °F 19.8 °F 19.4 °F 64% 30.16 in 10.0 mi NNW 13.8 mph - N/A   Clear
2:55 PM 30.2 °F 19.8 °F 21.2 °F 69% 30.16 in 10.0 mi NW 13.8 mph - N/A   Scattered Clouds
3:15 PM 30.2 °F 20.2 °F 21.2 °F 69% 30.16 in 10.0 mi NW 12.7 mph 17.3 mph N/A   Scattered Clouds
3:35 PM 28.4 °F 17.0 °F 21.2 °F 74% 30.16 in 10.0 mi NNW 15.0 mph - N/A   Scattered Clouds
3:55 PM 30.2 °F 20.2 °F 21.2 °F 69% 30.17 in 10.0 mi NNW 12.7 mph - N/A   Clear
4:15 PM 28.4 °F 18.5 °F 19.4 °F 69% 30.17 in 10.0 mi NNW 11.5 mph - N/A   Clear
4:35 PM 28.4 °F 18.5 °F 21.2 °F 74% 30.17 in 10.0 mi NNW 11.5 mph - N/A   Clear
4:55 PM 28.4 °F 18.0 °F 19.4 °F 69% 30.17 in 10.0 mi North 12.7 mph - N/A   Clear
5:15 PM 28.4 °F 18.5 °F 17.6 °F 64% 30.17 in 10.0 mi NNW 11.5 mph - N/A   Clear
5:35 PM 26.6 °F 15.7 °F 17.6 °F 69% 30.18 in 10.0 mi NNW 12.7 mph - N/A   Clear
5:55 PM 26.6 °F 15.7 °F 17.6 °F 69% 30.18 in 10.0 mi NNW 12.7 mph - N/A   Clear
6:15 PM 26.6 °F 16.2 °F 17.6 °F 69% 30.18 in 10.0 mi NNW 11.5 mph - N/A   Clear
6:35 PM 26.6 °F 15.7 °F 17.6 °F 69% 30.19 in 10.0 mi NNW 12.7 mph - N/A   Clear
6:55 PM 24.8 °F 12.9 °F 17.6 °F 74% 30.19 in 10.0 mi NNW 13.8 mph - N/A   Clear
7:15 PM 24.8 °F 14.0 °F 17.6 °F 74% 30.19 in 10.0 mi NNW 11.5 mph - N/A   Clear
7:35 PM 24.8 °F 14.0 °F 17.6 °F 74% 30.19 in 10.0 mi NNW 11.5 mph - N/A   Clear
7:55 PM 24.8 °F 14.6 °F 17.6 °F 74% 30.19 in 10.0 mi NNW 10.4 mph - N/A   Clear
8:15 PM 24.8 °F 16.1 °F 17.6 °F 74% 30.19 in 10.0 mi NNW 8.1 mph - N/A   Clear
8:35 PM 24.8 °F 17.9 °F 17.6 °F 74% 30.19 in 10.0 mi NNW 5.8 mph - N/A   Clear
8:55 PM 23.0 °F 15.8 °F 17.6 °F 80% 30.19 in 10.0 mi NNW 5.8 mph - N/A   Clear
9:15 PM 23.0 °F 15.8 °F 17.6 °F 80% 30.19 in 10.0 mi NNW 5.8 mph - N/A   Clear
9:35 PM 21.2 °F 12.6 °F 17.6 °F 86% 30.19 in 10.0 mi NNW 6.9 mph - N/A   Clear
9:55 PM 21.2 °F 12.6 °F 17.6 °F 86% 30.19 in 10.0 mi NNW 6.9 mph - N/A   Clear
10:15 PM 21.2 °F 12.6 °F 17.6 °F 86% 30.20 in 10.0 mi NNW 6.9 mph - N/A   Clear
10:35 PM 21.2 °F 13.6 °F 17.6 °F 86% 30.20 in 10.0 mi NNW 5.8 mph - N/A   Clear
10:55 PM 21.2 °F 16.4 °F 15.8 °F 80% 30.19 in 10.0 mi NNW 3.5 mph - N/A   Clear
11:15 PM 21.2 °F 16.4 °F 15.8 °F 80% 30.18 in 10.0 mi North 3.5 mph - N/A   Clear
11:35 PM 19.4 °F - 15.8 °F 86% 30.17 in 10.0 mi Calm Calm - N/A   Clear
11:55 PM 19.4 °F - 15.8 °F 86% 30.17 in 10.0 mi Calm Calm - N/A   Clear